Location: ?????oe
(44.4874°N, 135.7046°E)
Time: 01:48:55
(UTC+00:00)

FengYun 1-2 T - Pass Details

Date: 13 December 2025
Orbit: 845 x 879 km, 98.8° (Epoch: 12 January)

Event Time Altitude Azimuth Distance (km) Brightness Sun altitude
Rises 20:18:18 0° 9° (N) 3,488 7.4 -21.8°
Reaches altitude 10° 20:20:45 10° 4° (N) 2,545 6.6 -21.4°
Maximum altitude 20:26:12 50° 291° (WNW) 1,111 4.4 -20.4°
Drops below altitude 10° 20:31:36 10° 218° (SW) 2,523 6.4 -19.5°
Sets 20:34:02 0° 213° (SSW) 3,454 7.2 -19.1°
